Time,TemperatureF,DewpointF,PressureIn,WindDirection,WindDirectionDegrees,WindSpeedMPH,WindSpeedGustMPH,Humidity,HourlyPrecipIn,Conditions,Clouds,dailyrainin,SoftwareType,DateUTC
2013-02-12 00:01:00,40.0,29.0,30.07,NNW,333,8.0,-999.0,65,-99.99,,,-99.99,,2013-02-12 05:01:00,
2013-02-12 00:11:00,39.0,29.0,30.07,NW,312,9.0,-999.0,67,-99.99,,,-99.99,,2013-02-12 05:11:00,
2013-02-12 00:21:00,39.0,29.0,30.07,NW,312,9.0,-999.0,67,-99.99,,,-99.99,,2013-02-12 05:21:00,
2013-02-12 00:32:00,39.0,29.0,30.07,NNW,329,7.0,-999.0,67,-99.99,,,-99.99,,2013-02-12 05:32:00,
2013-02-12 00:42:00,39.0,29.0,30.07,NNW,329,7.0,-999.0,67,-99.99,,,-99.99,,2013-02-12 05:42:00,
2013-02-12 00:52:00,39.0,29.0,30.07,NNW,339,7.0,-999.0,67,-99.99,,,-99.99,,2013-02-12 05:52:00,
2013-02-12 01:02:00,39.0,28.0,30.08,NNW,336,7.0,-999.0,65,-99.99,,,-99.99,,2013-02-12 06:02:00,
2013-02-12 01:12:00,38.0,27.0,30.08,NNW,334,6.0,-999.0,63,-99.99,,,-99.99,,2013-02-12 06:12:00,
2013-02-12 01:22:00,38.0,27.0,30.08,NNW,334,6.0,-999.0,63,-99.99,,,-99.99,,2013-02-12 06:22:00,
2013-02-12 01:32:00,38.0,27.0,30.08,NNW,342,8.0,-999.0,64,-99.99,,,-99.99,,2013-02-12 06:32:00,
2013-02-12 01:42:00,38.0,27.0,30.09,North,355,10.0,-999.0,65,-99.99,,,-99.99,,2013-02-12 06:42:00,
2013-02-12 01:52:00,38.0,27.0,30.09,North,355,10.0,-999.0,65,-99.99,,,-99.99,,2013-02-12 06:52:00,
2013-02-12 02:01:00,38.0,28.0,30.08,North,355,10.0,-999.0,66,-99.99,,,-99.99,,2013-02-12 07:01:00,
2013-02-12 02:11:00,38.0,28.0,30.08,North,355,10.0,-999.0,66,-99.99,,,-99.99,,2013-02-12 07:11:00,
2013-02-12 02:21:00,38.0,28.0,30.06,North,355,6.0,-999.0,67,-99.99,,,-99.99,,2013-02-12 07:21:00,
2013-02-12 02:32:00,38.0,27.0,30.05,North,10,6.0,-999.0,65,-99.99,,,-99.99,,2013-02-12 07:32:00,
2013-02-12 02:42:00,38.0,27.0,30.05,North,10,6.0,-999.0,65,-99.99,,,-99.99,,2013-02-12 07:42:00,
2013-02-12 02:52:00,38.0,27.0,30.05,NE,43,8.0,-999.0,64,-99.99,,,-99.99,,2013-02-12 07:52:00,
2013-02-12 03:01:00,38.0,27.0,30.06,NE,37,9.0,-999.0,65,-99.99,,,-99.99,,2013-02-12 08:01:00,
2013-02-12 03:11:00,38.0,27.0,30.06,NE,37,9.0,-999.0,65,-99.99,,,-99.99,,2013-02-12 08:11:00,
2013-02-12 03:21:00,38.0,27.0,30.06,NE,40,9.0,-999.0,65,-99.99,,,-99.99,,2013-02-12 08:21:00,
2013-02-12 03:32:00,38.0,26.0,30.05,NE,47,10.0,-999.0,62,-99.99,,,-99.99,,2013-02-12 08:32:00,
2013-02-12 03:42:00,38.0,26.0,30.05,NE,47,10.0,-999.0,62,-99.99,,,-99.99,,2013-02-12 08:42:00,
2013-02-12 03:52:00,37.0,26.0,30.06,NE,42,11.0,-999.0,63,-99.99,,,-99.99,,2013-02-12 08:52:00,
2013-02-12 04:02:00,37.0,25.0,30.08,NE,34,12.0,-999.0,62,-99.99,,,-99.99,,2013-02-12 09:02:00,
2013-02-12 04:11:00,37.0,25.0,30.07,NE,36,10.0,-999.0,62,-99.99,,,-99.99,,2013-02-12 09:11:00,
2013-02-12 04:21:00,37.0,25.0,30.07,NE,36,10.0,-999.0,62,-99.99,,,-99.99,,2013-02-12 09:21:00,
2013-02-12 04:32:00,37.0,25.0,30.06,NE,42,9.0,-999.0,61,-99.99,,,-99.99,,2013-02-12 09:32:00,
2013-02-12 04:42:00,37.0,25.0,30.06,NE,42,11.0,-999.0,61,-99.99,,,-99.99,,2013-02-12 09:42:00,
2013-02-12 04:51:00,37.0,25.0,30.06,NE,42,11.0,-999.0,61,-99.99,,,-99.99,,2013-02-12 09:51:00,
2013-02-12 05:01:00,37.0,25.0,30.06,NE,44,9.0,-999.0,62,-99.99,,,-99.99,,2013-02-12 10:01:00,
2013-02-12 05:11:00,37.0,26.0,30.06,NE,41,10.0,-999.0,63,-99.99,,,-99.99,,2013-02-12 10:11:00,
2013-02-12 05:21:00,37.0,26.0,30.06,NE,41,10.0,-999.0,63,-99.99,,,-99.99,,2013-02-12 10:21:00,
2013-02-12 05:32:00,37.0,26.0,30.05,NE,43,11.0,-999.0,63,-99.99,,,-99.99,,2013-02-12 10:32:00,
2013-02-12 05:43:00,37.0,26.0,30.05,NE,43,11.0,-999.0,63,-99.99,,,-99.99,,2013-02-12 10:43:00,
2013-02-12 05:52:00,36.0,25.0,30.05,NE,46,11.0,-999.0,64,-99.99,,,-99.99,,2013-02-12 10:52:00,
2013-02-12 06:01:00,36.0,25.0,30.06,NE,50,10.0,-999.0,65,-99.99,,,-99.99,,2013-02-12 11:01:00,
2013-02-12 06:11:00,36.0,25.0,30.08,NE,47,7.0,-999.0,65,-99.99,,,-99.99,,2013-02-12 11:11:00,
2013-02-12 06:22:00,36.0,25.0,30.08,NE,47,7.0,-999.0,65,-99.99,,,-99.99,,2013-02-12 11:22:00,
2013-02-12 06:32:00,36.0,26.0,30.07,NE,44,8.0,-999.0,66,-99.99,,,-99.99,,2013-02-12 11:32:00,
2013-02-12 06:42:00,36.0,26.0,30.07,NE,44,8.0,-999.0,66,-99.99,,,-99.99,,2013-02-12 11:42:00,
2013-02-12 06:52:00,36.0,26.0,30.08,NE,44,8.0,-999.0,66,-99.99,,,-99.99,,2013-02-12 11:52:00,
2013-02-12 07:01:00,36.0,26.0,30.09,NE,44,8.0,-999.0,67,-99.99,,,-99.99,,2013-02-12 12:01:00,
2013-02-12 07:11:00,36.0,26.0,30.08,NE,51,8.0,-999.0,67,-99.99,,,-99.99,,2013-02-12 12:11:00,
2013-02-12 07:21:00,36.0,26.0,30.08,NE,51,8.0,-999.0,67,-99.99,,,-99.99,,2013-02-12 12:21:00,
2013-02-12 07:32:00,35.0,26.0,30.07,ENE,63,8.0,-999.0,68,-99.99,,,-99.99,,2013-02-12 12:32:00,
2013-02-12 07:42:00,35.0,26.0,30.07,ENE,69,8.0,-999.0,68,-99.99,,,-99.99,,2013-02-12 12:42:00,
2013-02-12 07:53:00,35.0,26.0,30.07,ENE,69,8.0,-999.0,68,-99.99,,,-99.99,,2013-02-12 12:53:00,
2013-02-12 08:01:00,36.0,26.0,30.09,ENE,69,6.0,-999.0,67,-99.99,,,-99.99,,2013-02-12 13:01:00,
2013-02-12 08:11:00,37.0,27.0,30.10,ENE,68,4.0,-999.0,66,-99.99,,,-99.99,,2013-02-12 13:11:00,
2013-02-12 08:22:00,37.0,27.0,30.10,ENE,68,4.0,-999.0,66,-99.99,,,-99.99,,2013-02-12 13:22:00,
2013-02-12 08:32:00,37.0,26.0,30.11,ENE,69,6.0,-999.0,65,-99.99,,,-99.99,,2013-02-12 13:32:00,
2013-02-12 08:42:00,37.0,26.0,30.11,ENE,69,6.0,-999.0,65,-99.99,,,-99.99,,2013-02-12 13:42:00,
2013-02-12 08:52:00,37.0,26.0,30.10,ENE,68,6.0,-999.0,65,-99.99,,,-99.99,,2013-02-12 13:52:00,
2013-02-12 09:01:00,37.0,26.0,30.11,ENE,71,5.0,-999.0,65,-99.99,,,-99.99,,2013-02-12 14:01:00,
2013-02-12 09:12:00,37.0,26.0,30.11,ENE,71,5.0,-999.0,65,-99.99,,,-99.99,,2013-02-12 14:12:00,
2013-02-12 09:21:00,37.0,27.0,30.11,ENE,73,6.0,-999.0,67,-99.99,,,-99.99,,2013-02-12 14:21:00,
2013-02-12 09:32:00,37.0,27.0,30.11,ENE,69,7.0,-999.0,68,-99.99,,,-99.99,,2013-02-12 14:32:00,
2013-02-12 09:42:00,37.0,27.0,30.11,ENE,69,7.0,-999.0,68,-99.99,,,-99.99,,2013-02-12 14:42:00,
2013-02-12 09:52:00,37.0,28.0,30.09,ENE,78,6.0,-999.0,69,-99.99,,,-99.99,,2013-02-12 14:52:00,
2013-02-12 10:02:00,38.0,29.0,30.08,ENE,78,4.0,-999.0,69,-99.99,,,-99.99,,2013-02-12 15:02:00,
2013-02-12 10:11:00,38.0,28.0,30.08,ENE,78,3.0,-999.0,68,-99.99,,,-99.99,,2013-02-12 15:11:00,
2013-02-12 10:21:00,38.0,28.0,30.08,ENE,78,3.0,-999.0,68,-99.99,,,-99.99,,2013-02-12 15:21:00,
2013-02-12 10:32:00,38.0,28.0,30.05,ENE,72,7.0,-999.0,67,-99.99,,,-99.99,,2013-02-12 15:32:00,
2013-02-12 10:42:00,38.0,28.0,30.05,ENE,72,7.0,-999.0,67,-99.99,,,-99.99,,2013-02-12 15:42:00,
2013-02-12 10:52:00,39.0,28.0,30.04,ENE,71,4.0,-999.0,64,-99.99,,,-99.99,,2013-02-12 15:52:00,
2013-02-12 11:01:00,39.0,27.0,30.04,ENE,71,6.0,-999.0,62,-99.99,,,-99.99,,2013-02-12 16:01:00,
2013-02-12 11:11:00,39.0,27.0,30.04,ENE,71,6.0,-999.0,62,-99.99,,,-99.99,,2013-02-12 16:11:00,
2013-02-12 11:22:00,40.0,27.0,30.03,East,84,4.0,-999.0,59,-99.99,,,-99.99,,2013-02-12 16:22:00,
2013-02-12 11:32:00,40.0,27.0,30.00,NE,56,9.0,-999.0,60,-99.99,,,-99.99,,2013-02-12 16:32:00,
2013-02-12 11:42:00,40.0,27.0,30.00,NE,56,9.0,-999.0,60,-99.99,,,-99.99,,2013-02-12 16:42:00,
2013-02-12 11:52:00,42.0,29.0,30.02,SE,126,5.0,-999.0,59,-99.99,,,-99.99,,2013-02-12 16:52:00,
2013-02-12 12:01:00,41.0,28.0,30.01,ESE,108,4.0,-999.0,60,-99.99,,,-99.99,,2013-02-12 17:01:00,
2013-02-12 12:12:00,42.0,29.0,30.01,SE,134,8.0,-999.0,60,-99.99,,,-99.99,,2013-02-12 17:12:00,
2013-02-12 12:21:00,42.0,29.0,30.01,SE,134,8.0,-999.0,60,-99.99,,,-99.99,,2013-02-12 17:21:00,
2013-02-12 12:32:00,43.0,30.0,30.02,SE,134,3.0,-999.0,59,-99.99,,,-99.99,,2013-02-12 17:32:00,
2013-02-12 12:42:00,43.0,30.0,30.02,SE,134,3.0,-999.0,59,-99.99,,,-99.99,,2013-02-12 17:42:00,
2013-02-12 12:52:00,44.0,30.0,30.02,SE,134,1.0,-999.0,57,-99.99,,,-99.99,,2013-02-12 17:52:00,
2013-02-12 13:01:00,44.0,30.0,30.02,SE,130,4.0,-999.0,58,-99.99,,,-99.99,,2013-02-12 18:01:00,
2013-02-12 13:11:00,43.0,29.0,30.01,ESE,103,7.0,-999.0,58,-99.99,,,-99.99,,2013-02-12 18:11:00,
2013-02-12 13:23:00,43.0,29.0,30.01,ESE,103,7.0,-999.0,58,-99.99,,,-99.99,,2013-02-12 18:23:00,
2013-02-12 13:32:00,42.0,29.0,30.01,ENE,71,7.0,-999.0,60,-99.99,,,-99.99,,2013-02-12 18:32:00,
2013-02-12 13:41:00,42.0,29.0,30.01,ENE,71,7.0,-999.0,60,-99.99,,,-99.99,,2013-02-12 18:41:00,
2013-02-12 13:52:00,42.0,30.0,30.01,ENE,71,6.0,-999.0,61,-99.99,,,-99.99,,2013-02-12 18:52:00,
2013-02-12 14:02:00,42.0,29.0,30.01,ENE,71,5.0,-999.0,60,-99.99,,,-99.99,,2013-02-12 19:02:00,
2013-02-12 14:11:00,42.0,30.0,29.97,ENE,71,5.0,-999.0,61,-99.99,,,-99.99,,2013-02-12 19:11:00,
2013-02-12 14:21:00,42.0,30.0,29.97,ENE,71,5.0,-999.0,61,-99.99,,,-99.99,,2013-02-12 19:21:00,
2013-02-12 14:32:00,42.0,30.0,29.96,ENE,71,4.0,-999.0,63,-99.99,,,-99.99,,2013-02-12 19:32:00,
2013-02-12 14:41:00,42.0,31.0,29.97,ENE,71,2.0,-999.0,64,-99.99,,,-99.99,,2013-02-12 19:41:00,
2013-02-12 14:52:00,42.0,31.0,29.97,ENE,71,2.0,-999.0,64,-99.99,,,-99.99,,2013-02-12 19:52:00,
2013-02-12 15:01:00,42.0,30.0,29.99,ENE,71,3.0,-999.0,63,-99.99,,,-99.99,,2013-02-12 20:01:00,
2013-02-12 15:11:00,42.0,30.0,29.99,ENE,71,3.0,-999.0,63,-99.99,,,-99.99,,2013-02-12 20:11:00,
2013-02-12 15:21:00,42.0,31.0,29.98,ENE,71,3.0,-999.0,65,-99.99,,,-99.99,,2013-02-12 20:21:00,
2013-02-12 15:32:00,41.0,30.0,29.98,ENE,71,6.0,-999.0,65,-99.99,,,-99.99,,2013-02-12 20:32:00,
2013-02-12 15:41:00,41.0,31.0,29.97,ENE,71,6.0,-999.0,66,-99.99,,,-99.99,,2013-02-12 20:41:00,
2013-02-12 15:52:00,41.0,31.0,29.97,ENE,71,6.0,-999.0,66,-99.99,,,-99.99,,2013-02-12 20:52:00,
2013-02-12 16:01:00,41.0,31.0,29.96,ENE,71,6.0,-999.0,66,-99.99,,,-99.99,,2013-02-12 21:01:00,
2013-02-12 16:11:00,41.0,31.0,29.96,ENE,71,6.0,-999.0,66,-99.99,,,-99.99,,2013-02-12 21:11:00,
2013-02-12 16:21:00,41.0,31.0,29.98,ENE,71,3.0,-999.0,66,-99.99,,,-99.99,,2013-02-12 21:21:00,
2013-02-12 16:31:00,41.0,31.0,29.96,ENE,71,3.0,-999.0,66,-99.99,,,-99.99,,2013-02-12 21:31:00,
2013-02-12 16:42:00,41.0,31.0,29.96,ENE,71,3.0,-999.0,66,-99.99,,,-99.99,,2013-02-12 21:42:00,
2013-02-12 16:52:00,41.0,31.0,29.96,ENE,71,3.0,-999.0,66,-99.99,,,-99.99,,2013-02-12 21:52:00,
2013-02-12 17:01:00,41.0,31.0,29.95,ENE,71,7.0,-999.0,66,-99.99,,,-99.99,,2013-02-12 22:01:00,
2013-02-12 17:12:00,41.0,31.0,29.93,ENE,71,7.0,-999.0,66,-99.99,,,-99.99,,2013-02-12 22:12:00,
2013-02-12 17:21:00,41.0,31.0,29.93,ENE,71,7.0,-999.0,66,-99.99,,,-99.99,,2013-02-12 22:21:00,
2013-02-12 17:32:00,41.0,30.0,29.92,ENE,71,7.0,-999.0,65,-99.99,,,-99.99,,2013-02-12 22:32:00,
2013-02-12 17:42:00,41.0,30.0,29.92,ENE,71,7.0,-999.0,65,-99.99,,,-99.99,,2013-02-12 22:42:00,
2013-02-12 17:52:00,41.0,30.0,29.91,ENE,73,9.0,-999.0,65,-99.99,,,-99.99,,2013-02-12 22:52:00,
2013-02-12 18:01:00,41.0,30.0,29.90,ENE,70,12.0,-999.0,65,-99.99,,,-99.99,,2013-02-12 23:01:00,
2013-02-12 18:11:00,40.0,29.0,29.89,ENE,68,9.0,-999.0,65,-99.99,,,-99.99,,2013-02-12 23:11:00,
2013-02-12 18:21:00,40.0,29.0,29.89,ENE,68,9.0,-999.0,65,-99.99,,,-99.99,,2013-02-12 23:21:00,
2013-02-12 18:32:00,41.0,29.0,29.90,East,90,6.0,-999.0,63,-99.99,,,-99.99,,2013-02-12 23:32:00,
2013-02-12 18:42:00,41.0,29.0,29.90,East,90,6.0,-999.0,63,-99.99,,,-99.99,,2013-02-12 23:42:00,
2013-02-12 18:52:00,40.0,28.0,29.91,ESE,117,6.0,-999.0,63,-99.99,,,-99.99,,2013-02-12 23:52:00,
2013-02-12 19:02:00,40.0,28.0,29.92,SSE,151,11.0,-999.0,62,-99.99,,,-99.99,,2013-02-13 00:02:00,
2013-02-12 19:11:00,40.0,28.0,29.92,SSE,151,11.0,-999.0,62,-99.99,,,-99.99,,2013-02-13 00:11:00,
2013-02-12 19:21:00,41.0,30.0,29.93,SSE,155,15.0,-999.0,64,-99.99,,,-99.99,,2013-02-13 00:21:00,
2013-02-12 19:32:00,42.0,30.0,29.91,SSE,159,11.0,-999.0,62,-99.99,,,-99.99,,2013-02-13 00:32:00,
2013-02-12 19:42:00,42.0,30.0,29.91,SSE,159,11.0,-999.0,62,-99.99,,,-99.99,,2013-02-13 00:42:00,
2013-02-12 19:52:00,42.0,30.0,29.92,SSE,159,5.0,-999.0,61,-99.99,,,-99.99,,2013-02-13 00:52:00,
2013-02-12 20:01:00,44.0,31.0,29.92,South,177,9.0,-999.0,61,-99.99,,,-99.99,,2013-02-13 01:01:00,
2013-02-12 20:11:00,44.0,31.0,29.92,South,177,9.0,-999.0,61,-99.99,,,-99.99,,2013-02-13 01:11:00,
2013-02-12 20:21:00,43.0,32.0,29.91,South,173,11.0,-999.0,64,-99.99,,,-99.99,,2013-02-13 01:21:00,
2013-02-12 20:31:00,43.0,33.0,29.90,SSE,154,13.0,-999.0,68,-99.99,,,-99.99,,2013-02-13 01:31:00,
2013-02-12 20:42:00,42.0,35.0,29.91,SSE,165,10.0,-999.0,75,-99.99,,,-99.99,,2013-02-13 01:42:00,
2013-02-12 20:52:00,42.0,35.0,29.91,SSE,165,10.0,-999.0,75,-99.99,,,-99.99,,2013-02-13 01:52:00,
2013-02-12 21:01:00,41.0,35.0,29.89,SSE,148,9.0,-999.0,78,-99.99,,,-99.99,,2013-02-13 02:01:00,
2013-02-12 21:11:00,40.0,35.0,29.88,SE,140,12.0,-999.0,82,-99.99,,,-99.99,,2013-02-13 02:11:00,
2013-02-12 21:22:00,40.0,35.0,29.88,SE,140,12.0,-999.0,82,-99.99,,,-99.99,,2013-02-13 02:22:00,
2013-02-12 21:31:00,39.0,35.0,29.88,SE,140,14.0,-999.0,86,-99.99,,,-99.99,,2013-02-13 02:31:00,
2013-02-12 21:42:00,39.0,35.0,29.88,SE,140,14.0,-999.0,86,-99.99,,,-99.99,,2013-02-13 02:42:00,
2013-02-12 21:52:00,40.0,36.0,29.88,SE,138,9.0,-999.0,86,-99.99,,,-99.99,,2013-02-13 02:52:00,
2013-02-12 22:01:00,39.0,35.0,29.87,SE,143,19.0,-999.0,87,-99.99,,,-99.99,,2013-02-13 03:01:00,
2013-02-12 22:11:00,39.0,35.0,29.85,ESE,114,4.0,-999.0,86,-99.99,,,-99.99,,2013-02-13 03:11:00,
2013-02-12 22:21:00,39.0,35.0,29.85,ESE,114,4.0,-999.0,86,-99.99,,,-99.99,,2013-02-13 03:21:00,
2013-02-12 22:32:00,39.0,36.0,29.83,ESE,102,5.0,-999.0,88,-99.99,,,-99.99,,2013-02-13 03:32:00,
2013-02-12 22:42:00,39.0,36.0,29.83,ESE,102,5.0,-999.0,88,-99.99,,,-99.99,,2013-02-13 03:42:00,
2013-02-12 22:51:00,39.0,36.0,29.83,East,88,7.0,-999.0,90,-99.99,,,-99.99,,2013-02-13 03:51:00,
2013-02-12 23:01:00,38.0,34.0,29.82,East,87,8.0,-999.0,87,-99.99,,,-99.99,,2013-02-13 04:01:00,
2013-02-12 23:11:00,38.0,34.0,29.82,East,87,8.0,-999.0,87,-99.99,,,-99.99,,2013-02-13 04:11:00,
2013-02-12 23:21:00,38.0,34.0,29.81,East,93,6.0,-999.0,87,-99.99,,,-99.99,,2013-02-13 04:21:00,
2013-02-12 23:32:00,39.0,34.0,29.82,ESE,123,7.0,-999.0,83,-99.99,,,-99.99,,2013-02-13 04:32:00,
2013-02-12 23:41:00,39.0,34.0,29.82,ESE,123,7.0,-999.0,83,-99.99,,,-99.99,,2013-02-13 04:41:00,
2013-02-12 23:51:00,39.0,33.0,29.80,ESE,102,8.0,-999.0,79,-99.99,,,-99.99,,2013-02-13 04:51:00,